Time,TemperatureF,DewpointF,PressureIn,WindDirection,WindDirectionDegrees,WindSpeedMPH,WindSpeedGustMPH,Humidity,HourlyPrecipIn,Conditions,Clouds,dailyrainin,SolarRadiationWatts/m^2,SoftwareType,DateUTC
2013-01-20 00:12:00,48.0,29.0,-100.00,SW,226,13.0,23.0,47,0.00,,,0.00,0.000000,,2013-01-20 05:12:00,
2013-01-20 00:23:00,48.0,29.0,-100.00,SW,226,13.0,23.0,47,0.00,,,0.00,0.000000,,2013-01-20 05:23:00,
2013-01-20 00:33:00,48.0,29.0,-100.00,SW,226,13.0,23.0,47,0.00,,,0.00,0.000000,,2013-01-20 05:33:00,
2013-01-20 00:43:00,48.0,29.0,-100.00,SW,226,13.0,23.0,47,0.00,,,0.00,0.000000,,2013-01-20 05:43:00,
2013-01-20 01:12:00,46.0,30.0,-100.00,SW,233,12.0,22.0,53,0.00,,,0.00,0.000000,,2013-01-20 06:12:00,
2013-01-20 01:22:00,46.0,30.0,-100.00,SW,233,12.0,22.0,53,0.00,,,0.00,0.000000,,2013-01-20 06:22:00,
2013-01-20 01:33:00,46.0,30.0,-100.00,SW,233,12.0,22.0,53,0.00,,,0.00,0.000000,,2013-01-20 06:33:00,
2013-01-20 01:43:00,46.0,30.0,-100.00,SW,233,12.0,22.0,53,0.00,,,0.00,0.000000,,2013-01-20 06:43:00,
2013-01-20 02:12:00,45.0,32.0,-100.00,WSW,240,12.0,22.0,60,0.00,,,0.00,0.000000,,2013-01-20 07:12:00,
2013-01-20 02:22:00,45.0,32.0,-100.00,WSW,240,12.0,22.0,60,0.00,,,0.00,0.000000,,2013-01-20 07:22:00,
2013-01-20 02:32:00,45.0,32.0,-100.00,WSW,240,12.0,22.0,60,0.00,,,0.00,0.000000,,2013-01-20 07:32:00,
2013-01-20 02:42:00,45.0,32.0,-100.00,WSW,240,12.0,22.0,60,0.00,,,0.00,0.000000,,2013-01-20 07:42:00,
2013-01-20 03:12:00,44.0,33.0,-100.00,WSW,242,12.0,27.0,66,0.00,,,0.00,0.000000,,2013-01-20 08:12:00,
2013-01-20 03:22:00,44.0,33.0,-100.00,WSW,242,12.0,27.0,66,0.00,,,0.00,0.000000,,2013-01-20 08:22:00,
2013-01-20 03:32:00,44.0,33.0,-100.00,WSW,242,12.0,27.0,66,0.00,,,0.00,0.000000,,2013-01-20 08:32:00,
2013-01-20 03:42:00,44.0,33.0,-100.00,WSW,242,12.0,27.0,66,0.00,,,0.00,0.000000,,2013-01-20 08:42:00,
2013-01-20 04:12:00,43.0,33.0,-100.00,West,263,11.0,19.0,68,0.00,,,0.00,0.000000,,2013-01-20 09:12:00,
2013-01-20 04:22:00,43.0,33.0,-100.00,West,263,11.0,19.0,68,0.00,,,0.00,0.000000,,2013-01-20 09:22:00,
2013-01-20 04:33:00,43.0,33.0,-100.00,West,263,11.0,19.0,68,0.00,,,0.00,0.000000,,2013-01-20 09:33:00,
2013-01-20 04:42:00,43.0,33.0,-100.00,West,263,11.0,19.0,68,0.00,,,0.00,0.000000,,2013-01-20 09:42:00,
2013-01-20 05:12:00,41.0,31.0,-100.00,West,272,5.0,18.0,66,0.00,,,0.00,0.000000,,2013-01-20 10:12:00,
2013-01-20 05:23:00,41.0,31.0,-100.00,West,272,5.0,18.0,66,0.00,,,0.00,0.000000,,2013-01-20 10:23:00,
2013-01-20 05:32:00,41.0,31.0,-100.00,West,272,5.0,18.0,66,0.00,,,0.00,0.000000,,2013-01-20 10:32:00,
2013-01-20 05:42:00,41.0,31.0,-100.00,West,272,5.0,18.0,66,0.00,,,0.00,0.000000,,2013-01-20 10:42:00,
2013-01-20 06:12:00,39.0,23.0,-100.00,WNW,289,14.0,26.0,53,0.00,,,-99.99,0.000000,,2013-01-20 11:12:00,
2013-01-20 06:22:00,39.0,23.0,-100.00,WNW,289,14.0,26.0,53,0.00,,,-99.99,0.000000,,2013-01-20 11:22:00,
2013-01-20 06:33:00,39.0,23.0,-100.00,WNW,289,14.0,26.0,53,0.00,,,-99.99,0.000000,,2013-01-20 11:33:00,
2013-01-20 06:43:00,39.0,23.0,-100.00,WNW,289,14.0,26.0,53,0.00,,,-99.99,0.000000,,2013-01-20 11:43:00,
2013-01-20 07:13:00,34.0,13.0,-100.00,NW,307,8.0,26.0,41,0.00,,,0.00,0.000000,,2013-01-20 12:13:00,
2013-01-20 07:23:00,34.0,13.0,-100.00,NW,307,8.0,26.0,41,0.00,,,0.00,0.000000,,2013-01-20 12:23:00,
2013-01-20 07:33:00,34.0,13.0,-100.00,NW,307,8.0,26.0,41,0.00,,,0.00,0.000000,,2013-01-20 12:33:00,
2013-01-20 07:43:00,34.0,13.0,-100.00,NW,307,8.0,26.0,41,0.00,,,0.00,0.000000,,2013-01-20 12:43:00,
2013-01-20 08:12:00,31.0,10.0,-100.00,NW,317,9.0,17.0,41,0.00,,,0.00,0.000000,,2013-01-20 13:12:00,
2013-01-20 08:23:00,31.0,10.0,-100.00,NW,317,9.0,17.0,41,0.00,,,0.00,0.000000,,2013-01-20 13:23:00,
2013-01-20 08:33:00,31.0,10.0,-100.00,NW,317,9.0,17.0,41,0.00,,,0.00,0.000000,,2013-01-20 13:33:00,
2013-01-20 08:43:00,31.0,10.0,-100.00,NW,317,9.0,17.0,41,0.00,,,0.00,0.000000,,2013-01-20 13:43:00,
2013-01-20 09:12:00,30.0,8.0,-100.00,NW,307,9.0,19.0,39,0.00,,,0.00,53.000000,,2013-01-20 14:12:00,
2013-01-20 09:23:00,30.0,8.0,-100.00,NW,307,9.0,19.0,39,0.00,,,0.00,53.000000,,2013-01-20 14:23:00,
2013-01-20 09:33:00,30.0,8.0,-100.00,NW,307,9.0,19.0,39,0.00,,,0.00,53.000000,,2013-01-20 14:33:00,
2013-01-20 09:43:00,30.0,8.0,-100.00,NW,307,9.0,19.0,39,0.00,,,0.00,53.000000,,2013-01-20 14:43:00,
2013-01-20 10:13:00,28.0,6.0,-100.00,NW,315,11.0,23.0,39,0.00,,,0.00,181.000000,,2013-01-20 15:13:00,
2013-01-20 10:23:00,28.0,6.0,-100.00,NW,315,11.0,23.0,39,0.00,,,0.00,181.000000,,2013-01-20 15:23:00,
2013-01-20 10:33:00,28.0,6.0,-100.00,NW,315,11.0,23.0,39,0.00,,,0.00,181.000000,,2013-01-20 15:33:00,
2013-01-20 10:43:00,28.0,6.0,-100.00,NW,315,11.0,23.0,39,0.00,,,0.00,181.000000,,2013-01-20 15:43:00,
2013-01-20 11:12:00,31.0,8.0,-100.00,North,351,9.0,18.0,38,0.00,,,0.00,404.000000,,2013-01-20 16:12:00,
2013-01-20 11:23:00,31.0,8.0,-100.00,North,351,9.0,18.0,38,0.00,,,0.00,404.000000,,2013-01-20 16:23:00,
2013-01-20 11:33:00,31.0,8.0,-100.00,North,351,9.0,18.0,38,0.00,,,0.00,404.000000,,2013-01-20 16:33:00,
2013-01-20 11:43:00,31.0,8.0,-100.00,North,351,9.0,18.0,38,0.00,,,0.00,404.000000,,2013-01-20 16:43:00,
2013-01-20 12:13:00,33.0,11.0,-100.00,NW,309,11.0,18.0,39,0.00,,,0.00,552.000000,,2013-01-20 17:13:00,
2013-01-20 12:23:00,33.0,11.0,-100.00,NW,309,11.0,18.0,39,0.00,,,0.00,552.000000,,2013-01-20 17:23:00,
2013-01-20 12:33:00,33.0,11.0,-100.00,NW,309,11.0,18.0,39,0.00,,,0.00,552.000000,,2013-01-20 17:33:00,
2013-01-20 12:42:00,33.0,11.0,-100.00,NW,309,11.0,18.0,39,0.00,,,0.00,552.000000,,2013-01-20 17:42:00,
2013-01-20 13:13:00,34.0,8.0,-100.00,WNW,290,8.0,16.0,33,0.00,,,0.00,645.000000,,2013-01-20 18:13:00,
2013-01-20 13:24:00,34.0,8.0,-100.00,WNW,290,8.0,16.0,33,0.00,,,0.00,645.000000,,2013-01-20 18:24:00,
2013-01-20 13:33:00,34.0,8.0,-100.00,WNW,290,8.0,16.0,33,0.00,,,0.00,645.000000,,2013-01-20 18:33:00,
2013-01-20 13:43:00,34.0,8.0,-100.00,WNW,290,8.0,16.0,33,0.00,,,0.00,645.000000,,2013-01-20 18:43:00,
2013-01-20 14:12:00,34.0,6.0,-100.00,NNW,338,7.0,15.0,30,0.00,,,0.00,711.000000,,2013-01-20 19:12:00,
2013-01-20 14:23:00,34.0,6.0,-100.00,NNW,338,7.0,15.0,30,0.00,,,0.00,711.000000,,2013-01-20 19:23:00,
2013-01-20 14:33:00,34.0,6.0,-100.00,NNW,338,7.0,15.0,30,0.00,,,0.00,711.000000,,2013-01-20 19:33:00,
2013-01-20 14:43:00,34.0,6.0,-100.00,NNW,338,7.0,15.0,30,0.00,,,0.00,711.000000,,2013-01-20 19:43:00,
2013-01-20 15:12:00,35.0,5.0,-100.00,NW,315,6.0,13.0,28,0.00,,,0.00,542.000000,,2013-01-20 20:12:00,
2013-01-20 15:23:00,35.0,5.0,-100.00,NW,315,6.0,13.0,28,0.00,,,0.00,542.000000,,2013-01-20 20:23:00,
2013-01-20 15:33:00,35.0,5.0,-100.00,NW,315,6.0,13.0,28,0.00,,,0.00,542.000000,,2013-01-20 20:33:00,
2013-01-20 15:42:00,35.0,5.0,-100.00,NW,315,6.0,13.0,28,0.00,,,0.00,542.000000,,2013-01-20 20:42:00,
2013-01-20 16:13:00,33.0,5.0,-100.00,NNW,339,6.0,11.0,30,0.00,,,0.00,305.000000,,2013-01-20 21:13:00,
2013-01-20 16:23:00,33.0,5.0,-100.00,NNW,339,6.0,11.0,30,0.00,,,0.00,305.000000,,2013-01-20 21:23:00,
2013-01-20 16:33:00,33.0,5.0,-100.00,NNW,339,6.0,11.0,30,0.00,,,0.00,305.000000,,2013-01-20 21:33:00,
2013-01-20 16:43:00,33.0,5.0,-100.00,NNW,339,6.0,11.0,30,0.00,,,0.00,305.000000,,2013-01-20 21:43:00,
2013-01-20 17:13:00,34.0,7.0,-100.00,NW,311,5.0,9.0,31,0.00,,,0.00,256.000000,,2013-01-20 22:13:00,
2013-01-20 17:23:00,34.0,7.0,-100.00,NW,311,5.0,9.0,31,0.00,,,0.00,256.000000,,2013-01-20 22:23:00,
2013-01-20 17:33:00,34.0,7.0,-100.00,NW,311,5.0,9.0,31,0.00,,,0.00,256.000000,,2013-01-20 22:33:00,
2013-01-20 17:43:00,34.0,7.0,-100.00,NW,311,5.0,9.0,31,0.00,,,0.00,256.000000,,2013-01-20 22:43:00,
2013-01-20 18:13:00,32.0,7.0,-100.00,NNW,329,5.0,10.0,35,0.00,,,0.00,110.000000,,2013-01-20 23:13:00,
2013-01-20 18:23:00,32.0,7.0,-100.00,NNW,329,5.0,10.0,35,0.00,,,0.00,110.000000,,2013-01-20 23:23:00,
2013-01-20 18:33:00,32.0,7.0,-100.00,NNW,329,5.0,10.0,35,0.00,,,0.00,110.000000,,2013-01-20 23:33:00,
2013-01-20 18:43:00,32.0,7.0,-100.00,NNW,329,5.0,10.0,35,0.00,,,0.00,110.000000,,2013-01-20 23:43:00,
2013-01-20 19:13:00,31.0,11.0,-100.00,North,352,4.0,10.0,42,0.00,,,0.00,1.000000,,2013-01-21 00:13:00,
2013-01-20 19:23:00,31.0,11.0,-100.00,North,352,4.0,10.0,42,0.00,,,0.00,1.000000,,2013-01-21 00:23:00,
2013-01-20 19:33:00,31.0,11.0,-100.00,North,352,4.0,10.0,42,0.00,,,0.00,1.000000,,2013-01-21 00:33:00,
2013-01-20 19:43:00,31.0,11.0,-100.00,North,352,4.0,10.0,42,0.00,,,0.00,1.000000,,2013-01-21 00:43:00,
2013-01-20 20:13:00,29.0,10.0,-100.00,North,356,5.0,10.0,45,0.00,,,0.00,0.000000,,2013-01-21 01:13:00,
2013-01-20 20:23:00,29.0,10.0,-100.00,North,356,5.0,10.0,45,0.00,,,0.00,0.000000,,2013-01-21 01:23:00,
2013-01-20 20:33:00,29.0,10.0,-100.00,North,356,5.0,10.0,45,0.00,,,0.00,0.000000,,2013-01-21 01:33:00,
2013-01-20 20:43:00,29.0,10.0,-100.00,North,356,5.0,10.0,45,0.00,,,0.00,0.000000,,2013-01-21 01:43:00,
2013-01-20 21:13:00,28.0,10.0,-100.00,NNW,341,4.0,10.0,46,0.00,,,0.00,0.000000,,2013-01-21 02:13:00,
2013-01-20 21:23:00,28.0,10.0,-100.00,NNW,341,4.0,10.0,46,0.00,,,0.00,0.000000,,2013-01-21 02:23:00,
2013-01-20 21:33:00,28.0,10.0,-100.00,NNW,341,4.0,10.0,46,0.00,,,0.00,0.000000,,2013-01-21 02:33:00,
2013-01-20 21:43:00,28.0,10.0,-100.00,NNW,341,4.0,10.0,46,0.00,,,0.00,0.000000,,2013-01-21 02:43:00,
2013-01-20 22:13:00,27.0,10.0,-100.00,WNW,303,3.0,6.0,48,0.00,,,0.00,0.000000,,2013-01-21 03:13:00,
2013-01-20 22:23:00,27.0,10.0,-100.00,WNW,303,3.0,6.0,48,0.00,,,0.00,0.000000,,2013-01-21 03:23:00,
2013-01-20 22:33:00,27.0,10.0,-100.00,WNW,303,3.0,6.0,48,0.00,,,0.00,0.000000,,2013-01-21 03:33:00,
2013-01-20 22:43:00,27.0,10.0,-100.00,WNW,303,3.0,6.0,48,0.00,,,0.00,0.000000,,2013-01-21 03:43:00,
2013-01-20 23:13:00,26.0,10.0,-100.00,NW,318,3.0,9.0,51,0.00,,,0.00,0.000000,,2013-01-21 04:13:00,
2013-01-20 23:23:00,26.0,10.0,-100.00,NW,318,3.0,9.0,51,0.00,,,0.00,0.000000,,2013-01-21 04:23:00,
2013-01-20 23:33:00,26.0,10.0,-100.00,NW,318,3.0,9.0,51,0.00,,,0.00,0.000000,,2013-01-21 04:33:00,
2013-01-20 23:43:00,26.0,10.0,-100.00,NW,318,3.0,9.0,51,0.00,,,0.00,0.000000,,2013-01-21 04:43:00,